TimeEST,TemperatureF,Dew PointF,Humidity,Sea Level PressureIn,VisibilityMPH,Wind Direction,Wind SpeedMPH,Gust SpeedMPH,PrecipitationIn,Events,Conditions,WindDirDegrees,DateUTC
12:53 AM,32.0,23.0,69,30.21,6.0,South,3.5,-,N/A,,Haze,180,2013-02-07 05:53:00
1:53 AM,32.0,24.1,73,30.19,6.0,SSE,4.6,-,N/A,,Haze,150,2013-02-07 06:53:00
2:53 AM,32.0,24.1,73,30.17,6.0,SE,5.8,-,N/A,,Haze,140,2013-02-07 07:53:00
3:53 AM,32.0,24.1,73,30.16,6.0,SE,6.9,-,N/A,,Haze,130,2013-02-07 08:53:00
4:53 AM,32.0,24.1,73,30.15,6.0,SSE,4.6,-,N/A,,Haze,150,2013-02-07 09:53:00
5:53 AM,33.1,25.0,72,30.14,7.0,SE,5.8,-,N/A,,Clear,140,2013-02-07 10:53:00
6:53 AM,33.1,25.0,72,30.14,6.0,East,4.6,-,N/A,,Haze,100,2013-02-07 11:53:00
7:53 AM,32.0,25.0,75,30.13,5.0,SE,8.1,-,N/A,,Haze,130,2013-02-07 12:53:00
8:53 AM,34.0,26.1,73,30.12,5.0,ESE,6.9,-,N/A,,Haze,120,2013-02-07 13:53:00
9:53 AM,37.0,27.0,67,30.10,6.0,SE,8.1,-,N/A,,Haze,140,2013-02-07 14:53:00
10:53 AM,39.9,28.0,63,30.10,7.0,ESE,3.5,-,N/A,,Clear,110,2013-02-07 15:53:00
11:53 AM,44.1,30.0,58,30.06,9.0,SE,5.8,-,N/A,,Clear,130,2013-02-07 16:53:00
12:53 PM,48.0,30.9,52,30.01,10.0,SE,6.9,-,N/A,,Clear,140,2013-02-07 17:53:00
1:53 PM,51.1,33.1,50,29.98,10.0,Variable,6.9,-,N/A,,Clear,0,2013-02-07 18:53:00
2:53 PM,53.1,28.9,40,29.94,10.0,SSW,5.8,-,N/A,,Clear,200,2013-02-07 19:53:00
3:53 PM,53.1,30.0,41,29.92,10.0,SSE,8.1,-,N/A,,Clear,150,2013-02-07 20:53:00
4:53 PM,53.1,30.0,41,29.89,10.0,SSE,6.9,-,N/A,,Clear,160,2013-02-07 21:53:00
5:53 PM,51.1,30.9,46,29.88,10.0,SSE,8.1,-,N/A,,Clear,160,2013-02-07 22:53:00
6:53 PM,46.9,32.0,56,29.86,10.0,SSE,8.1,-,N/A,,Clear,150,2013-02-07 23:53:00
7:53 PM,46.0,32.0,58,29.84,10.0,SSE,5.8,-,N/A,,Clear,160,2013-02-08 00:53:00
8:53 PM,50.0,33.1,52,29.81,10.0,SSE,10.4,-,N/A,,Overcast,160,2013-02-08 01:53:00
9:53 PM,48.9,33.1,54,29.78,10.0,South,10.4,-,N/A,,Mostly Cloudy,170,2013-02-08 02:53:00
10:53 PM,45.0,37.9,76,29.81,4.0,West,8.1,-,0.06,Rain,Rain,260,2013-02-08 03:53:00
11:00 PM,44.6,39.2,81,29.81,5.0,West,9.2,-,0.01,Rain,Light Rain,270,2013-02-08 04:00:00
11:45 PM,44.6,39.2,81,29.79,2.5,WSW,5.8,-,0.10,Rain,Rain,240,2013-02-08 04:45:00
11:53 PM,44.1,39.9,85,29.79,2.5,WSW,4.6,-,0.12,Rain,Rain,250,2013-02-08 04:53:00